Showing default

TIROS 3, 162

Orbit data source: Space-Track

TIROS 3, 162 is a payload satellite owned by GSFC (US) in LEO that was launched on Wed, 12 Jul 1961 UTC via a THOR DELTA launch vehicle from the Air Force Eastern Test Range (AFETR). Payload-class satellites include a variety of spacecraft equipped with specific instruments for various scientific and technological missions. These include communications satellites like Starlink; space stations such as the ISS; scientific satellites like the Hubble; Earth observation satellites from companies like Planet Labs, Umbra, and HawkEye 360; GPS; miniature CubeSats for education and research; and military/defense satellites.

Loading next visibility...
Identifier
162, 1961-017A
Orbit
LEO
Country
Flag of USUS
Related business
Manufacturer
RCA/East Windsor
Mission
Non-operational spacecraft
Bus & Motor
TIROS, Unknown motor
Mass
129 kg wet, 129 kg dry
Launch date (UTC)
1961-07-12 (65 years ago)
Launch vehicle
THOR DELTA
Launch site
Air Force Eastern Test Range (AFETR)
Object type
Payload
Rocket body
Debris
Shape & HBR
Unknown
Radar Cross Section
Medium (>0.1 m² and <1 m²)

Expand to show TLE details & history
Last TLE update: 10 hours ago

TLE from 10 hours ago
0 TIROS 3
1 00162U 61017A   26128.21800051 -.00000012  00000-0  42772-4 0  9990
2 00162  47.8984 190.7466 0043679 165.9968 194.2146 14.45381742385997
Epoch: 2026-05-08T05:13Z
TLE epoch observation values (Epoch: 2026-05-08T05:13:55.244Z)
Latitude
-0.00004°
Longitude
-113.78657°
Altitude
771.231 km
Speed
7.454 km/s
True Right ascension
12h 42m 59s
True Declination
0° 00' 00"
Sunlit
Object was in full shadow at epoch
Visualization orbit readout
Latitude
Unknown
Longitude
Unknown
Altitude
Unknown
Speed
Unknown
Apparent Right ascension
Unknown
Apparent Declination
Unknown
Sunlit
N/A
Visualization observer readout
Local Sidereal Time
23:27:38
Azimuth
Unknown
Elevation
Unknown
Doppler factor
Unknown
Orbital elements
Apogee altitude
772.954 km
Perigee altitude
710.755 km
Semi-major axis
7,119.992 km
Eccentricity
0.00437
Inclination
47.8984°
RAAN
190.7466°
Arg. of periapsis
165.9968°
True anomaly
194.09234°
Mean anomaly
194.2146°
Eccentric anomaly
194.15341°
Mean motion
3.61263 °/min
Orbital period
99.65 mins
BSTAR
0.000042772
Loading maneuver chart data...
Computing Atmospheric mass density...
Loading historical data...
Loading historical data...
Loading historical data...
Loading historical data...
Loading historical data...
Loading historical data...
Loading historical data...
Other satellites on launch #17 in the year 1961 (1961-07-12 UTC)

Documentation

Showing up to 5 results
|